[[{"header":{"parameterUnit":"m.s-1","parameterCategory":2,"la1":30.2992,"la2":30.254,"lo1":-89.0895,"lo2":-89.0443,"dy":0.0025,"dx":0.0025,"nx":19,"ny":19,"refTime":"2026-03-07T03:00:00:Z","depth":"0","parameterNumber":2,"parameterNumberName":"U-component_of_CURRENTS"},"data":[0,0,0,-0.1459,-0.146,-0.1489,-0.1489,-0.1457,-0.1457,0,0,0,0,0,0,0,0,0,0,0,-0.1438,-0.1438,-0.1459,-0.146,-0.1489,-0.1489,-0.1457,-0.1457,0,0,0,0,0,0,0,0,0,0,0,-0.1438,-0.1438,-0.1438,-0.146,-0.1489,-0.1489,-0.1458,-0.1451,0,0,0,0,0,0,0,0,0,0,-0.143,-0.1421,-0.1438,-0.1438,-0.1461,-0.1489,-0.1489,-0.1451,-0.1451,-0.1428,0,-0.1433,0,-0.1452,-0.1454,-0.1454,0,0,0,-0.1451,-0.1421,-0.1435,-0.1438,-0.1461,-0.1489,-0.1473,-0.1451,-0.1451,-0.1428,-0.1433,-0.1432,-0.1451,-0.1454,-0.1454,-0.1481,-0.1481,0,0,-0.1449,-0.1435,-0.1435,-0.1435,-0.1467,-0.1472,-0.1474,-0.1452,-0.1446,-0.1433,-0.1432,-0.145,-0.1454,-0.1453,-0.148,-0.1481,0,0,0,-0.1451,-0.1434,-0.145,-0.1436,-0.1451,-0.1474,-0.1476,-0.1447,-0.1454,-0.1432,-0.145,-0.1453,-0.1453,-0.1479,-0.148,-0.1554,0,0,0,-0.145,-0.1436,-0.1449,-0.144,-0.1452,-0.1458,-0.147,-0.1455,-0.1454,-0.145,-0.1453,-0.1453,-0.1479,-0.148,-0.1551,-0.1591,0,0,0,-0.1437,-0.1435,-0.144,-0.1439,-0.1458,-0.146,-0.1465,-0.1456,-0.1465,-0.1454,-0.1452,-0.1478,-0.148,-0.1548,-0.1585,-0.1651,0,0,0,-0.1419,-0.1449,-0.1439,-0.1474,-0.1458,-0.1502,-0.1466,-0.1482,-0.1477,-0.1453,-0.1479,-0.148,-0.1547,-0.1582,-0.1647,-0.154,-0.1549,0,0,-0.1456,-0.1453,-0.1476,-0.1469,-0.1513,-0.1497,-0.1553,-0.1525,-0.1491,-0.1477,-0.1479,-0.1552,-0.1585,-0.165,-0.1624,-0.163,0,0,0,-0.1489,-0.1495,-0.1509,-0.1527,-0.1551,-0.1583,-0.1566,-0.1576,-0.1577,-0.1498,-0.1561,-0.158,-0.1618,-0.1546,-0.1551,-0.1458,-0.1487,-0.1487,-0.1487,-0.1495,-0.1517,-0.1548,-0.1574,-0.1603,-0.1638,-0.1675,-0.1681,-0.1628,-0.1652,-0.1646,-0.1755,-0.1678,-0.1681,-0.1587,-0.1649,-0.1649,-0.1649,-0.1649,-0.1521,-0.1529,-0.1564,-0.1599,-0.1642,-0.168,-0.1762,-0.176,-0.1816,-0.1748,-0.1781,-0.1634,-0.1692,-0.1588,-0.1654,-0.1653,-0.1653,-0.1652,-0.1652,-0.1494,-0.1504,-0.1525,-0.1575,-0.1644,-0.1708,-0.1819,-0.1863,-0.1876,-0.1917,-0.1819,-0.1815,-0.1719,-0.1919,-0.192,-0.192,-0.1921,-0.1921,-0.1921,-0.1444,-0.1475,-0.1492,-0.1559,-0.1607,-0.1708,-0.1851,-0.1912,-0.193,-0.1902,-0.1901,-0.1738,-0.1838,-0.1822,-0.1929,-0.1928,-0.1927,-0.1926,-0.1925,-0.1385,-0.1405,-0.1438,-0.1481,-0.1612,-0.169,-0.1843,-0.1907,-0.1978,-0.1955,-0.1767,-0.1897,-0.1866,-0.1858,-0.1842,-0.195,-0.195,-0.195,-0.1949,-0.1332,-0.135,-0.1391,-0.1466,-0.1584,-0.1689,-0.1726,-0.1751,-0.1731,-0.167,-0.1728,-0.1616,-0.1619,-0.1568,-0.1567,-0.1543,-0.1572,-0.1572,-0.1571,-0.1275,-0.1309,-0.1323,-0.1418,-0.1562,-0.1647,-0.1592,-0.1512,-0.1492,-0.1551,-0.1629,-0.1645,-0.1476,-0.1488,-0.1399,-0.1404,-0.1361,0,0]},{"header":{"parameterUnit":"m.s-1","parameterCategory":2,"la1":30.2992,"la2":30.254,"lo1":-89.0895,"lo2":-89.0443,"dy":0.0025,"dx":0.0025,"nx":19,"ny":19,"refTime":"2026-03-07T03:00:00:Z","depth":"0","parameterNumber":3,"parameterNumberName":"V-component_of_CURRENTS"},"data":[0,0,0,-0.0152,-0.0151,-0.0092,-0.0092,0.001,0.0011,0,0,0,0,0,0,0,0,0,0,0,-0.0173,-0.0173,-0.0152,-0.0151,-0.0092,-0.0092,0.001,0.0011,0,0,0,0,0,0,0,0,0,0,0,-0.0173,-0.0173,-0.0173,-0.0151,-0.0092,-0.0092,0.001,-0.0038,0,0,0,0,0,0,0,0,0,0,-0.0097,-0.0124,-0.0173,-0.0173,-0.0151,-0.0093,-0.0092,-0.0041,-0.0035,-0.0013,0,-0.0013,0,-0.0002,0.0017,0.0017,0,0,0,-0.0139,-0.0129,-0.0116,-0.0173,-0.015,-0.0093,-0.0115,-0.0038,-0.0032,-0.0005,-0.0011,-0.0007,-0.0001,0.0018,0.0018,0.0119,0.0119,0,0,-0.0142,-0.0155,-0.0121,-0.0113,-0.0146,-0.0117,-0.0114,-0.0034,-0.003,-0.0011,-0.0005,0.0001,0.0018,0.0019,0.0118,0.0119,0,0,0,-0.016,-0.0157,-0.0147,-0.0117,-0.0111,-0.0116,-0.0112,-0.0033,-0.0031,-0.0004,0.0002,0.0019,0.002,0.0118,0.0119,0.0081,0,0,0,-0.0161,-0.0168,-0.0149,-0.0154,-0.0113,-0.0075,-0.0112,-0.0037,-0.0027,0.0002,0.0019,0.0021,0.0117,0.0118,0.0081,0.0053,0,0,0,-0.0174,-0.0169,-0.0167,-0.0155,-0.0136,-0.0076,-0.0068,-0.0034,-0.0024,0.0018,0.0021,0.0117,0.0118,0.0081,0.0054,0.0114,0,0,0,-0.0182,-0.0199,-0.0167,-0.018,-0.0136,-0.0111,-0.0069,-0.0042,-0.0012,0.0019,0.0118,0.0118,0.0081,0.0055,0.0113,0.0139,0.0143,0,0,-0.0213,-0.0203,-0.0211,-0.0182,-0.018,-0.0117,-0.0085,-0.0031,0.0016,0.0094,0.0097,0.0081,0.0054,0.0114,0.0192,0.0195,0,0,0,-0.0228,-0.0236,-0.0229,-0.0218,-0.0182,-0.0129,-0.0068,-0.0018,0.0059,0.0037,0.0111,0.0096,0.0134,0.0149,0.0152,0.0249,0.0123,0.0123,0.0123,-0.0287,-0.0269,-0.0278,-0.0246,-0.0217,-0.0131,-0.0078,0.001,0.005,0.009,0.0087,0.0134,0.0149,0.0152,0.0251,0.012,0.012,0.012,0.012,-0.0341,-0.0348,-0.031,-0.0314,-0.0245,-0.0203,-0.0074,-0.0024,0.009,0.0102,0.0143,0.0135,0.0152,0.0257,0.0118,0.0118,0.0119,0.0119,0.0119,-0.0387,-0.0387,-0.0382,-0.0371,-0.0332,-0.0248,-0.0175,-0.0078,0.0049,0.0082,0.0161,0.0162,0.0238,0.0125,0.0125,0.0125,0.0126,0.0126,0.0126,-0.0434,-0.0427,-0.045,-0.0429,-0.0427,-0.0377,-0.023,-0.0132,0.0038,0.0128,0.013,0.0275,0.0137,0.0119,0.0128,0.0128,0.0127,0.0127,0.0127,-0.0487,-0.0483,-0.0528,-0.054,-0.0528,-0.0491,-0.0346,-0.0106,0.0033,0.0136,0.0326,0.0182,0.0208,0.0207,0.0192,0.022,0.022,0.022,0.022,-0.0522,-0.0522,-0.0593,-0.0633,-0.063,-0.0549,-0.0397,-0.0155,0.0193,0.0353,0.0419,0.0421,0.0413,0.0451,0.0444,0.0435,0.0525,0.0525,0.0526,-0.0547,-0.0572,-0.0633,-0.0675,-0.0684,-0.0597,-0.0456,-0.0211,0.029,0.0548,0.0551,0.0538,0.0549,0.0529,0.0592,0.0575,0.056,0,0]}],[{"header":{"parameterUnit":"m.s-1","parameterCategory":2,"la1":30.2992,"la2":30.254,"lo1":-89.0895,"lo2":-89.0443,"dy":0.0025,"dx":0.0025,"nx":19,"ny":19,"refTime":"2026-03-07T03:00:00:Z","depth":"2","parameterNumber":2,"parameterNumberName":"U-component_of_CURRENTS"},"data":[0,0,0,-0.1192,-0.1193,-0.1213,-0.1213,-0.1204,-0.1204,0,0,0,0,0,0,0,0,0,0,0,-0.1181,-0.1181,-0.1192,-0.1193,-0.1213,-0.1213,-0.1204,-0.1204,0,0,0,0,0,0,0,0,0,0,0,-0.1181,-0.1181,-0.1181,-0.1193,-0.1213,-0.1213,-0.1204,-0.1196,0,0,0,0,0,0,0,0,0,0,-0.1181,-0.1172,-0.1181,-0.1181,-0.1193,-0.1213,-0.1213,-0.1196,-0.1197,-0.1186,0,-0.1191,0,-0.12,-0.1203,-0.1203,0,0,0,-0.1188,-0.1172,-0.1184,-0.1181,-0.1193,-0.1213,-0.1203,-0.1197,-0.1197,-0.1187,-0.1191,-0.1191,-0.12,-0.1203,-0.1202,-0.1229,-0.1229,0,0,-0.1187,-0.1178,-0.1183,-0.1184,-0.12,-0.1202,-0.1203,-0.1197,-0.1194,-0.1191,-0.1191,-0.12,-0.1202,-0.1202,-0.1229,-0.1229,0,0,0,-0.1187,-0.1177,-0.1189,-0.1184,-0.1192,-0.1203,-0.1204,-0.1194,-0.12,-0.1191,-0.12,-0.1202,-0.1202,-0.1228,-0.1229,-0.1287,0,0,0,-0.1186,-0.1177,-0.1188,-0.1182,-0.1193,-0.1197,-0.12,-0.12,-0.12,-0.12,-0.1202,-0.1202,-0.1228,-0.1229,-0.1284,-0.1322,0,0,0,-0.118,-0.1176,-0.1181,-0.1181,-0.1194,-0.1198,-0.1203,-0.12,-0.1205,-0.1203,-0.1202,-0.1228,-0.1228,-0.1282,-0.1318,-0.1368,0,0,0,-0.1167,-0.1189,-0.118,-0.1212,-0.1193,-0.1236,-0.1203,-0.1227,-0.1231,-0.1202,-0.1228,-0.1229,-0.1281,-0.1315,-0.1365,-0.1249,-0.1253,0,0,-0.1193,-0.1191,-0.1215,-0.1209,-0.1253,-0.1233,-0.1279,-0.1265,-0.1239,-0.1225,-0.1226,-0.1285,-0.1317,-0.1367,-0.1304,-0.1306,0,0,0,-0.1224,-0.1234,-0.1251,-0.127,-0.1293,-0.1311,-0.13,-0.1305,-0.1303,-0.1246,-0.1288,-0.1307,-0.1337,-0.126,-0.1263,-0.1233,-0.1233,-0.1233,-0.1233,-0.1229,-0.1253,-0.1284,-0.1312,-0.1339,-0.1363,-0.139,-0.1386,-0.1347,-0.1361,-0.1356,-0.1438,-0.1356,-0.1356,-0.1351,-0.1351,-0.1352,-0.1352,-0.1352,-0.1254,-0.1263,-0.1297,-0.1332,-0.1361,-0.1391,-0.1449,-0.1447,-0.1486,-0.143,-0.1455,-0.1327,-0.1362,-0.1357,-0.1356,-0.1355,-0.1355,-0.1354,-0.1354,-0.1235,-0.1239,-0.1265,-0.1306,-0.1357,-0.1404,-0.1477,-0.1519,-0.1535,-0.1569,-0.1468,-0.1465,-0.1482,-0.1568,-0.1568,-0.1569,-0.1569,-0.1569,-0.157,-0.1186,-0.1216,-0.1228,-0.1285,-0.1314,-0.1385,-0.1498,-0.1543,-0.1557,-0.1534,-0.1533,-0.1511,-0.1504,-0.1494,-0.1576,-0.1575,-0.1574,-0.1573,-0.1573,-0.1138,-0.1151,-0.1172,-0.1199,-0.1279,-0.13,-0.1438,-0.1482,-0.1554,-0.1534,-0.1515,-0.1514,-0.1488,-0.1483,-0.1473,-0.1545,-0.1545,-0.1545,-0.1545,-0.1086,-0.1102,-0.111,-0.1142,-0.1198,-0.1259,-0.1239,-0.1264,-0.1344,-0.1336,-0.1345,-0.1248,-0.1254,-0.1209,-0.1211,-0.1193,-0.1192,-0.1191,-0.1191,-0.1036,-0.1052,-0.1034,-0.1078,-0.1143,-0.1163,-0.1058,-0.0984,-0.1043,-0.1177,-0.1288,-0.152,-0.1397,-0.1399,-0.1343,-0.134,-0.1316,0,0]},{"header":{"parameterUnit":"m.s-1","parameterCategory":2,"la1":30.2992,"la2":30.254,"lo1":-89.0895,"lo2":-89.0443,"dy":0.0025,"dx":0.0025,"nx":19,"ny":19,"refTime":"2026-03-07T03:00:00:Z","depth":"2","parameterNumber":3,"parameterNumberName":"V-component_of_CURRENTS"},"data":[0,0,0,-0.0247,-0.0246,-0.0192,-0.0192,-0.008,-0.0079,0,0,0,0,0,0,0,0,0,0,0,-0.0264,-0.0264,-0.0247,-0.0246,-0.0192,-0.0192,-0.008,-0.0079,0,0,0,0,0,0,0,0,0,0,0,-0.0264,-0.0264,-0.0264,-0.0246,-0.0192,-0.0192,-0.008,-0.0129,0,0,0,0,0,0,0,0,0,0,-0.0185,-0.0212,-0.0264,-0.0264,-0.0246,-0.0192,-0.0192,-0.0131,-0.0126,-0.0096,0,-0.0096,0,-0.009,-0.0072,-0.0071,0,0,0,-0.0233,-0.0217,-0.0205,-0.0264,-0.0246,-0.0192,-0.0213,-0.0128,-0.0122,-0.0088,-0.0094,-0.009,-0.0088,-0.0071,-0.007,0.002,0.002,0,0,-0.0236,-0.0247,-0.0209,-0.0201,-0.024,-0.0215,-0.0211,-0.0125,-0.0119,-0.0094,-0.0088,-0.0086,-0.007,-0.0069,0.002,0.002,0,0,0,-0.0254,-0.025,-0.024,-0.0205,-0.0202,-0.0214,-0.021,-0.0123,-0.0121,-0.0087,-0.0085,-0.0069,-0.0068,0.0019,0.002,-0.0033,0,0,0,-0.0255,-0.026,-0.0242,-0.0246,-0.0204,-0.0168,-0.021,-0.0127,-0.0117,-0.0085,-0.0069,-0.0067,0.0019,0.002,-0.0032,-0.0069,0,0,0,-0.0265,-0.0261,-0.0259,-0.0247,-0.023,-0.0169,-0.0162,-0.0125,-0.0116,-0.0071,-0.0067,0.0019,0.002,-0.0031,-0.0067,-0.0047,0,0,0,-0.0272,-0.0284,-0.0259,-0.0267,-0.0231,-0.0204,-0.0162,-0.0132,-0.0098,-0.0069,0.0019,0.002,-0.0031,-0.0065,-0.0046,-0.0058,-0.0063,0,0,-0.0296,-0.0287,-0.0292,-0.0269,-0.0263,-0.021,-0.0186,-0.0126,-0.0078,-0.0004,-0.0002,-0.0032,-0.0066,-0.0047,-0.0035,-0.0041,0,0,0,-0.0305,-0.0311,-0.0303,-0.0292,-0.0259,-0.0226,-0.0163,-0.0125,-0.0061,-0.0058,-0.0009,-0.0029,-0.0015,-0.0019,-0.0024,0.0022,0.0022,0.0022,0.0021,-0.0351,-0.0335,-0.0343,-0.0318,-0.0294,-0.0229,-0.0194,-0.0126,-0.0075,-0.0051,-0.0054,-0.0054,-0.006,-0.0063,-0.0025,-0.0026,-0.0026,-0.0026,-0.0026,-0.0396,-0.0404,-0.0377,-0.0381,-0.0335,-0.0304,-0.0216,-0.0174,-0.0101,-0.007,-0.0053,-0.0054,-0.0071,-0.003,-0.0029,-0.0029,-0.0028,-0.0028,-0.0028,-0.0434,-0.0437,-0.0434,-0.0435,-0.0419,-0.0359,-0.0338,-0.0257,-0.0157,-0.0145,-0.0103,-0.0102,-0.009,-0.0119,-0.0119,-0.0119,-0.0119,-0.0119,-0.0119,-0.0473,-0.0471,-0.0499,-0.0493,-0.0505,-0.049,-0.0407,-0.0355,-0.024,-0.0163,-0.0162,-0.0085,-0.0082,-0.0093,-0.012,-0.012,-0.012,-0.012,-0.012,-0.0518,-0.0519,-0.0571,-0.0594,-0.0624,-0.064,-0.0556,-0.043,-0.0338,-0.0274,-0.0154,-0.0152,-0.0131,-0.0127,-0.0138,-0.0174,-0.0174,-0.0174,-0.0174,-0.055,-0.0552,-0.0638,-0.0701,-0.0743,-0.0718,-0.0677,-0.051,-0.0317,-0.0213,-0.0211,-0.0204,-0.0201,-0.0182,-0.0177,-0.0188,-0.0238,-0.0238,-0.0238,-0.0576,-0.0605,-0.0678,-0.0744,-0.0805,-0.0799,-0.0744,-0.0519,-0.0261,-0.0241,-0.0224,-0.0178,-0.0163,-0.016,-0.0124,-0.0118,-0.0134,0,0]}],[{"header":{"parameterUnit":"m.s-1","parameterCategory":2,"la1":30.2992,"la2":30.254,"lo1":-89.0895,"lo2":-89.0443,"dy":0.0025,"dx":0.0025,"nx":19,"ny":19,"refTime":"2026-03-07T03:00:00:Z","depth":"4","parameterNumber":2,"parameterNumberName":"U-component_of_CURRENTS"},"data":[0,0,0,-0.0881,-0.0882,-0.0916,-0.0916,-0.0879,-0.0879,0,0,0,0,0,0,0,0,0,0,0,-0.0869,-0.087,-0.088,-0.0882,-0.0916,-0.0916,-0.0879,-0.0879,0,0,0,0,0,0,0,0,0,0,0,-0.0869,-0.087,-0.087,-0.0882,-0.0916,-0.0916,-0.0879,-0.0871,0,0,0,0,0,0,0,0,0,0,-0.0847,-0.0851,-0.0869,-0.087,-0.0882,-0.0916,-0.0916,-0.0871,-0.0871,-0.0844,0,-0.0862,0,-0.0873,-0.0876,-0.0875,0,0,0,-0.087,-0.0851,-0.0863,-0.087,-0.0883,-0.0916,-0.0897,-0.0872,-0.0872,-0.0844,-0.0862,-0.0861,-0.0872,-0.0875,-0.0875,-0.0918,-0.0919,0,0,-0.0868,-0.0867,-0.0864,-0.0864,-0.0906,-0.0896,-0.0898,-0.0873,-0.0875,-0.0862,-0.086,-0.0872,-0.0875,-0.0875,-0.0918,-0.0919,0,0,0,-0.0871,-0.0865,-0.088,-0.0865,-0.0879,-0.0897,-0.09,-0.0876,-0.0882,-0.086,-0.0871,-0.0875,-0.0874,-0.0917,-0.0918,-0.095,0,0,0,-0.0869,-0.0868,-0.0879,-0.0877,-0.0881,-0.0889,-0.0903,-0.0884,-0.0882,-0.0871,-0.0875,-0.0874,-0.0916,-0.0917,-0.0948,-0.0966,0,0,0,-0.0865,-0.0867,-0.0876,-0.0877,-0.0898,-0.089,-0.0895,-0.0884,-0.0888,-0.0875,-0.0873,-0.0915,-0.0917,-0.0945,-0.0962,-0.0969,0,0,0,-0.0853,-0.0863,-0.0877,-0.0887,-0.0898,-0.0919,-0.0895,-0.0901,-0.0893,-0.0874,-0.0916,-0.0918,-0.0944,-0.0959,-0.0967,-0.0787,0,0,0,-0.0853,-0.0863,-0.0866,-0.088,-0.091,-0.0913,-0.095,-0.0928,-0.0917,-0.0914,-0.0915,-0.0948,-0.0961,-0.0969,-0.0907,0,0,0,0,-0.0858,-0.0867,-0.0874,-0.09,-0.0919,-0.0963,-0.0958,-0.0963,-0.0979,-0.0926,-0.098,-0.0988,-0.0991,-0.0882,-0.0928,-0.0927,-0.0927,-0.0927,-0.0927,-0.0861,-0.0875,-0.0898,-0.093,-0.0955,-0.0997,-0.1024,-0.1042,-0.101,-0.1041,-0.1038,-0.11,-0.0989,-0.1062,-0.1062,-0.1062,-0.1063,-0.1063,-0.1063,-0.0867,-0.0877,-0.0924,-0.0952,-0.1011,-0.1049,-0.1096,-0.1099,-0.1131,-0.1107,-0.1108,-0.0954,-0.1067,-0.1066,-0.1065,-0.1065,-0.1065,-0.1064,-0.1064,-0.0856,-0.0866,-0.09,-0.0959,-0.1026,-0.1079,-0.1107,-0.1151,-0.1163,-0.1181,-0.104,-0.1124,-0.1093,-0.1167,-0.1168,-0.1168,-0.1168,-0.1168,-0.1168,-0.0827,-0.0864,-0.0887,-0.0957,-0.0988,-0.1038,-0.111,-0.1111,-0.1145,-0.1071,-0.1183,-0.1135,-0.1131,-0.11,-0.117,-0.117,-0.117,-0.1169,-0.1169,-0.0784,-0.0812,-0.0828,-0.0857,-0.091,-0.0932,-0.1029,-0.1006,-0.1,-0.0962,-0.1004,-0.1011,-0.0978,-0.0979,-0.094,-0.0966,-0.0963,-0.0961,0,-0.0747,-0.0766,-0.0761,-0.0763,-0.0766,-0.0846,-0.0792,-0.0819,-0.0864,-0.0839,-0.0993,-0.1041,-0.1045,-0.1007,-0.1004,-0.0959,0,0,0,-0.071,-0.0713,-0.0679,-0.0689,-0.0679,-0.0688,-0.0764,-0.0731,-0.0879,-0.081,-0.0909,-0.0923,-0.1042,-0.1177,-0.1144,-0.114,-0.1087,0,0]},{"header":{"parameterUnit":"m.s-1","parameterCategory":2,"la1":30.2992,"la2":30.254,"lo1":-89.0895,"lo2":-89.0443,"dy":0.0025,"dx":0.0025,"nx":19,"ny":19,"refTime":"2026-03-07T03:00:00:Z","depth":"4","parameterNumber":3,"parameterNumberName":"V-component_of_CURRENTS"},"data":[0,0,0,-0.0223,-0.0222,-0.0187,-0.0187,-0.0082,-0.0081,0,0,0,0,0,0,0,0,0,0,0,-0.0233,-0.0233,-0.0223,-0.0222,-0.0187,-0.0187,-0.0083,-0.0081,0,0,0,0,0,0,0,0,0,0,0,-0.0233,-0.0233,-0.0233,-0.0222,-0.0187,-0.0187,-0.0083,-0.0121,0,0,0,0,0,0,0,0,0,0,-0.0161,-0.0185,-0.0233,-0.0233,-0.0222,-0.0187,-0.0187,-0.0123,-0.0119,-0.0085,0,-0.0088,0,-0.0087,-0.0074,-0.0074,0,0,0,-0.021,-0.019,-0.0181,-0.0233,-0.0222,-0.0188,-0.02,-0.0121,-0.0116,-0.0078,-0.0087,-0.0083,-0.0085,-0.0073,-0.0073,-0.0003,-0.0003,0,0,-0.0212,-0.0221,-0.0185,-0.0178,-0.0222,-0.0201,-0.0199,-0.0118,-0.0114,-0.0087,-0.0081,-0.0083,-0.0073,-0.0072,-0.0003,-0.0003,0,0,0,-0.0226,-0.0222,-0.0217,-0.0182,-0.0183,-0.02,-0.0198,-0.0118,-0.0117,-0.008,-0.0082,-0.0072,-0.0071,-0.0003,-0.0003,-0.0067,0,0,0,-0.0226,-0.0231,-0.0218,-0.0222,-0.0185,-0.0159,-0.0199,-0.0122,-0.0114,-0.0083,-0.0072,-0.007,-0.0003,-0.0003,-0.0065,-0.0104,0,0,0,-0.0233,-0.0232,-0.0231,-0.0223,-0.0214,-0.0161,-0.0154,-0.0121,-0.0115,-0.0074,-0.0069,-0.0003,-0.0003,-0.0063,-0.01,-0.013,0,0,0,-0.0237,-0.0242,-0.0232,-0.023,-0.0214,-0.0189,-0.0155,-0.0125,-0.0093,-0.0072,-0.0003,-0.0003,-0.0063,-0.0098,-0.0127,-0.0134,0,0,0,-0.0246,-0.0244,-0.0241,-0.0231,-0.0224,-0.0193,-0.0181,-0.0126,-0.0082,-0.0022,-0.0021,-0.0066,-0.01,-0.0129,-0.0139,0,0,0,0,-0.0244,-0.0248,-0.0239,-0.0235,-0.0212,-0.0209,-0.0158,-0.0136,-0.0093,-0.0067,-0.005,-0.0069,-0.0086,-0.0081,-0.0003,-0.0003,-0.0003,-0.0003,-0.0003,-0.0273,-0.0261,-0.0267,-0.0255,-0.0242,-0.0212,-0.0203,-0.0164,-0.0109,-0.0104,-0.0109,-0.016,-0.0156,-0.0088,-0.0088,-0.0089,-0.0089,-0.0089,-0.0089,-0.0298,-0.0307,-0.0302,-0.0306,-0.0299,-0.0289,-0.025,-0.0223,-0.0202,-0.0152,-0.0164,-0.0134,-0.0095,-0.0094,-0.0093,-0.0092,-0.0092,-0.0091,-0.0091,-0.0322,-0.033,-0.0335,-0.0359,-0.0375,-0.0351,-0.0372,-0.0324,-0.0267,-0.0278,-0.0255,-0.0203,-0.0212,-0.0275,-0.0276,-0.0276,-0.0276,-0.0277,-0.0277,-0.0349,-0.0357,-0.0394,-0.0414,-0.0443,-0.0463,-0.0443,-0.0437,-0.0379,-0.0334,-0.0293,-0.0222,-0.0216,-0.0221,-0.0281,-0.0281,-0.028,-0.028,-0.0279,-0.0373,-0.0387,-0.0442,-0.048,-0.0548,-0.0558,-0.0548,-0.0505,-0.0502,-0.0467,-0.0357,-0.0352,-0.0331,-0.0323,-0.0331,-0.0426,-0.0426,-0.0427,0,-0.0396,-0.0404,-0.0491,-0.0564,-0.0624,-0.0618,-0.0613,-0.0589,-0.0508,-0.0485,-0.0505,-0.0383,-0.0377,-0.0354,-0.0347,-0.0358,0,0,0,-0.0417,-0.0443,-0.0511,-0.0586,-0.0657,-0.0629,-0.0608,-0.0584,-0.0507,-0.0508,-0.0435,-0.0433,-0.0393,-0.0296,-0.0251,-0.0244,-0.025,0,0]}]]